{"data":{"norad_id":56922,"intl_designator":"2023-083AY","name":"STARLINK-5937","alt_names":[],"object_type":"PAYLOAD","status":"ACTIVE","operator":null,"country":"US","launch_date":"2023-06-12","launch_site_code":"AFETR","launch_vehicle":null,"mission":null,"orbit_class":"UNKNOWN","rcs_meters":null,"size_class":null,"mass_kg":null,"dimensions":null,"purposes":["comms"],"wikipedia_slug":null,"has_3d_model":false,"image_url":null,"decayed_at":null,"tle_current":{"epoch":"2026-05-24T17:25:28.244640Z","epoch_age_seconds":95249,"freshness":"FRESH","line1":"1 56922U 23083AY  26144.72602135  .00000429  00000+0  25138-4 0  9990","line2":"2 56922  43.0057   1.5420 0001652 267.2409  92.8254 15.27578387163420","mean_motion":15.27578387,"eccentricity":0.0001652,"inclination_deg":43.0057,"raan_deg":1.542,"arg_perigee_deg":267.2409,"mean_anomaly_deg":92.8254,"bstar":2.5138e-5,"rev_number":16342,"period_min":94.266848251762,"perigee_km":481.92045720521,"apogee_km":484.18739468714,"semimajor_km":6861.1909259462,"source":"CELESTRAK","updated_at":"2026-05-25T13:38:18.206451Z"}}}